Location: Ertinghausen
(51.6624°N, 9.7874°E)
Time: 12:42:14
(UTC+00:00)

CZ-2D R/B - Pass Details

Date: 23 May 2024
Orbit: 791 x 843 km, 98.8° (Epoch: 12 June)

Event Time Altitude Azimuth Distance (km) Brightness Sun altitude
Rises 00:09:47 0° 25° (NNE) 3,414 7.0 -16.8°
Reaches altitude 10° 00:12:47 10° 41° (NE) 2,471 5.6 -16.7°
Maximum altitude 00:16:51 21° 89° (E) 1,810 4.1 -16.5°
Drops below altitude 10° 00:20:52 10° 137° (SE) 2,442 4.3 -16.4°
Enters shadow 00:21:25 - 141° (SE) 2,598 4.4 -16.4°
